Location: Cussy
(47.0410°N, 4.6412°E)
Time: 06:40:15
(UTC+00:00)

Cosmos 1535 Rocket - Pass Details

Date: 30 November 2020
Orbit: 949 x 1004 km, 83.0° (Epoch: 18 January)

Event Time Altitude Azimuth Distance (km) Brightness Sun altitude
Rises 18:10:30 0° 354° (N) 3,637 7.5 -22.5°
Reaches altitude 10° 18:13:05 10° 359° (N) 2,685 6.7 -22.9°
Maximum altitude 18:19:04 53° 76° (ENE) 1,157 4.5 -23.9°
Enters shadow 18:19:17 53° 84° (E) 1,160 4.5 -23.9°
